owner,sensor,date,latitude,longitude,sea_surface_height_above_sea_level,qcFlag 
COMPS,ioos:station:USF.COMPS:SHP:1,2017-08-01T00:00:00Z,30.0600,-84.2910,-9.928,1111122 
COMPS,ioos:station:USF.COMPS:SHP:1,2017-08-01T00:06:00Z,30.0600,-84.2910,-9.923,1111122 
COMPS,ioos:station:USF.COMPS:SHP:1,2017-08-01T00:12:00Z,30.0600,-84.2910,-9.903,1111122 
COMPS,ioos:station:USF.COMPS:SHP:1,2017-08-01T00:18:00Z,30.0600,-84.2910,-9.885,1111122 
COMPS,ioos:station:USF.COMPS:SHP:1,2017-08-01T00:24:00Z,30.0600,-84.2910,-9.873,1111122 
COMPS,ioos:station:USF.COMPS:SHP:1,2017-08-01T00:30:00Z,30.0600,-84.2910,-9.87,1111122 
COMPS,ioos:station:USF.COMPS:SHP:1,2017-08-01T00:36:00Z,30.0600,-84.2910,-9.866,1111122 
COMPS,ioos:station:USF.COMPS:SHP:1,2017-08-01T00:42:00Z,30.0600,-84.2910,-9.863,1111122 
COMPS,ioos:station:USF.COMPS:SHP:1,2017-08-01T00:48:00Z,30.0600,-84.2910,-9.851,1111122 
COMPS,ioos:station:USF.COMPS:SHP:1,2017-08-01T00:54:00Z,30.0600,-84.2910,-9.839,1111122 
COMPS,ioos:station:USF.COMPS:SHP:1,2017-08-01T01:00:00Z,30.0600,-84.2910,-9.835,1111122 
COMPS,ioos:station:USF.COMPS:SHP:1,2017-08-01T01:06:00Z,30.0600,-84.2910,-9.824,1111122 
COMPS,ioos:station:USF.COMPS:SHP:1,2017-08-01T01:12:00Z,30.0600,-84.2910,-9.816,1111122 
COMPS,ioos:station:USF.COMPS:SHP:1,2017-08-01T01:18:00Z,30.0600,-84.2910,-9.809,1111122 
COMPS,ioos:station:USF.COMPS:SHP:1,2017-08-01T01:24:00Z,30.0600,-84.2910,-9.801,1111122 
COMPS,ioos:station:USF.COMPS:SHP:1,2017-08-01T01:30:00Z,30.0600,-84.2910,-9.806,1111122 
COMPS,ioos:station:USF.COMPS:SHP:1,2017-08-01T01:36:00Z,30.0600,-84.2910,-9.805,1111122 
COMPS,ioos:station:USF.COMPS:SHP:1,2017-08-01T01:42:00Z,30.0600,-84.2910,-9.801,1111122 
COMPS,ioos:station:USF.COMPS:SHP:1,2017-08-01T01:48:00Z,30.0600,-84.2910,-9.79,1111122 
COMPS,ioos:station:USF.COMPS:SHP:1,2017-08-01T01:54:00Z,30.0600,-84.2910,-9.776,1111122 
COMPS,ioos:station:USF.COMPS:SHP:1,2017-08-01T02:00:00Z,30.0600,-84.2910,-9.77,1111122 
COMPS,ioos:station:USF.COMPS:SHP:1,2017-08-01T02:06:00Z,30.0600,-84.2910,-9.761,1111122 
COMPS,ioos:station:USF.COMPS:SHP:1,2017-08-01T02:12:00Z,30.0600,-84.2910,-9.752,1111122 
COMPS,ioos:station:USF.COMPS:SHP:1,2017-08-01T02:18:00Z,30.0600,-84.2910,-9.738,1111122 
COMPS,ioos:station:USF.COMPS:SHP:1,2017-08-01T02:24:00Z,30.0600,-84.2910,-9.737,1111122 
COMPS,ioos:station:USF.COMPS:SHP:1,2017-08-01T02:30:00Z,30.0600,-84.2910,-9.73,1111122 
COMPS,ioos:station:USF.COMPS:SHP:1,2017-08-01T02:36:00Z,30.0600,-84.2910,-9.727,1111122 
COMPS,ioos:station:USF.COMPS:SHP:1,2017-08-01T02:42:00Z,30.0600,-84.2910,-9.734,1111122 
COMPS,ioos:station:USF.COMPS:SHP:1,2017-08-01T02:48:00Z,30.0600,-84.2910,-9.739,1111122 
COMPS,ioos:station:USF.COMPS:SHP:1,2017-08-01T02:54:00Z,30.0600,-84.2910,-9.745,1111122 
COMPS,ioos:station:USF.COMPS:SHP:1,2017-08-01T03:00:00Z,30.0600,-84.2910,-9.743,1111122 
COMPS,ioos:station:USF.COMPS:SHP:1,2017-08-01T03:06:00Z,30.0600,-84.2910,-9.749,1111122 
COMPS,ioos:station:USF.COMPS:SHP:1,2017-08-01T03:12:00Z,30.0600,-84.2910,-9.753,1111122 
COMPS,ioos:station:USF.COMPS:SHP:1,2017-08-01T03:18:00Z,30.0600,-84.2910,-9.746,1111122 
COMPS,ioos:station:USF.COMPS:SHP:1,2017-08-01T03:24:00Z,30.0600,-84.2910,-9.743,1111122 
COMPS,ioos:station:USF.COMPS:SHP:1,2017-08-01T03:30:00Z,30.0600,-84.2910,-9.751,1111122 
COMPS,ioos:station:USF.COMPS:SHP:1,2017-08-01T03:36:00Z,30.0600,-84.2910,-9.76,1111122 
COMPS,ioos:station:USF.COMPS:SHP:1,2017-08-01T03:42:00Z,30.0600,-84.2910,-9.756,1111122 
COMPS,ioos:station:USF.COMPS:SHP:1,2017-08-01T03:48:00Z,30.0600,-84.2910,-9.747,1111122 
COMPS,ioos:station:USF.COMPS:SHP:1,2017-08-01T03:54:00Z,30.0600,-84.2910,-9.752,1111122 
COMPS,ioos:station:USF.COMPS:SHP:1,2017-08-01T04:00:00Z,30.0600,-84.2910,-9.762,1111122 
COMPS,ioos:station:USF.COMPS:SHP:1,2017-08-01T04:06:00Z,30.0600,-84.2910,-9.763,1111122 
COMPS,ioos:station:USF.COMPS:SHP:1,2017-08-01T04:12:00Z,30.0600,-84.2910,-9.761,1111122 
COMPS,ioos:station:USF.COMPS:SHP:1,2017-08-01T04:18:00Z,30.0600,-84.2910,-9.761,1111122 
COMPS,ioos:station:USF.COMPS:SHP:1,2017-08-01T04:24:00Z,30.0600,-84.2910,-9.757,1111122 
COMPS,ioos:station:USF.COMPS:SHP:1,2017-08-01T04:30:00Z,30.0600,-84.2910,-9.755,1111122 
COMPS,ioos:station:USF.COMPS:SHP:1,2017-08-01T04:36:00Z,30.0600,-84.2910,-9.759,1111122 
COMPS,ioos:station:USF.COMPS:SHP:1,2017-08-01T04:42:00Z,30.0600,-84.2910,-9.768,1111122 
COMPS,ioos:station:USF.COMPS:SHP:1,2017-08-01T04:48:00Z,30.0600,-84.2910,-9.777,1111122 
COMPS,ioos:station:USF.COMPS:SHP:1,2017-08-01T04:54:00Z,30.0600,-84.2910,-9.781,1111122 
COMPS,ioos:station:USF.COMPS:SHP:1,2017-08-01T05:00:00Z,30.0600,-84.2910,-9.778,1111122 
COMPS,ioos:station:USF.COMPS:SHP:1,2017-08-01T05:06:00Z,30.0600,-84.2910,-9.778,1111122 
COMPS,ioos:station:USF.COMPS:SHP:1,2017-08-01T05:12:00Z,30.0600,-84.2910,-9.785,1111122 
COMPS,ioos:station:USF.COMPS:SHP:1,2017-08-01T05:18:00Z,30.0600,-84.2910,-9.779,1111122 
COMPS,ioos:station:USF.COMPS:SHP:1,2017-08-01T05:24:00Z,30.0600,-84.2910,-9.777,1111122 
COMPS,ioos:station:USF.COMPS:SHP:1,2017-08-01T05:30:00Z,30.0600,-84.2910,-9.787,1111122 
COMPS,ioos:station:USF.COMPS:SHP:1,2017-08-01T05:36:00Z,30.0600,-84.2910,-9.798,1111122 
COMPS,ioos:station:USF.COMPS:SHP:1,2017-08-01T05:42:00Z,30.0600,-84.2910,-9.806,1111122 
COMPS,ioos:station:USF.COMPS:SHP:1,2017-08-01T05:48:00Z,30.0600,-84.2910,-9.814,1111122 
COMPS,ioos:station:USF.COMPS:SHP:1,2017-08-01T05:54:00Z,30.0600,-84.2910,-9.82,1111122 
COMPS,ioos:station:USF.COMPS:SHP:1,2017-08-01T06:00:00Z,30.0600,-84.2910,-9.822,1111122 
COMPS,ioos:station:USF.COMPS:SHP:1,2017-08-01T06:06:00Z,30.0600,-84.2910,-9.828,1111122 
COMPS,ioos:station:USF.COMPS:SHP:1,2017-08-01T06:12:00Z,30.0600,-84.2910,-9.842,1111122 
COMPS,ioos:station:USF.COMPS:SHP:1,2017-08-01T06:18:00Z,30.0600,-84.2910,-9.869,1111122 
COMPS,ioos:station:USF.COMPS:SHP:1,2017-08-01T06:24:00Z,30.0600,-84.2910,-9.889,1111122 
COMPS,ioos:station:USF.COMPS:SHP:1,2017-08-01T06:30:00Z,30.0600,-84.2910,-9.904,1111122 
COMPS,ioos:station:USF.COMPS:SHP:1,2017-08-01T06:36:00Z,30.0600,-84.2910,-9.918,1111122 
COMPS,ioos:station:USF.COMPS:SHP:1,2017-08-01T06:42:00Z,30.0600,-84.2910,-9.924,1111122 
COMPS,ioos:station:USF.COMPS:SHP:1,2017-08-01T06:48:00Z,30.0600,-84.2910,-9.929,1111122 
COMPS,ioos:station:USF.COMPS:SHP:1,2017-08-01T06:54:00Z,30.0600,-84.2910,-9.933,1111122 
COMPS,ioos:station:USF.COMPS:SHP:1,2017-08-01T07:00:00Z,30.0600,-84.2910,-9.94,1111122 
COMPS,ioos:station:USF.COMPS:SHP:1,2017-08-01T07:06:00Z,30.0600,-84.2910,-9.949,1111122 
COMPS,ioos:station:USF.COMPS:SHP:1,2017-08-01T07:12:00Z,30.0600,-84.2910,-9.957,1111122 
COMPS,ioos:station:USF.COMPS:SHP:1,2017-08-01T07:18:00Z,30.0600,-84.2910,-9.967,1111122 
COMPS,ioos:station:USF.COMPS:SHP:1,2017-08-01T07:24:00Z,30.0600,-84.2910,-9.973,1111122 
COMPS,ioos:station:USF.COMPS:SHP:1,2017-08-01T07:30:00Z,30.0600,-84.2910,-9.984,1111122 
COMPS,ioos:station:USF.COMPS:SHP:1,2017-08-01T07:36:00Z,30.0600,-84.2910,-9.994,1111122 
COMPS,ioos:station:USF.COMPS:SHP:1,2017-08-01T08:00:00Z,30.0600,-84.2910,-9.999,1111122 
COMPS,ioos:station:USF.COMPS:SHP:1,2017-08-01T08:42:00Z,30.0600,-84.2910,-9.988,1111122 
COMPS,ioos:station:USF.COMPS:SHP:1,2017-08-01T08:48:00Z,30.0600,-84.2910,-9.981,1111122 
COMPS,ioos:station:USF.COMPS:SHP:1,2017-08-01T08:54:00Z,30.0600,-84.2910,-9.986,1111122 
COMPS,ioos:station:USF.COMPS:SHP:1,2017-08-01T09:00:00Z,30.0600,-84.2910,-9.998,1111122 
COMPS,ioos:station:USF.COMPS:SHP:1,2017-08-01T09:06:00Z,30.0600,-84.2910,-9.994,1111122 
COMPS,ioos:station:USF.COMPS:SHP:1,2017-08-01T09:12:00Z,30.0600,-84.2910,-9.98,1111122 
COMPS,ioos:station:USF.COMPS:SHP:1,2017-08-01T09:18:00Z,30.0600,-84.2910,-9.967,1111122 
COMPS,ioos:station:USF.COMPS:SHP:1,2017-08-01T09:24:00Z,30.0600,-84.2910,-9.955,1111122 
COMPS,ioos:station:USF.COMPS:SHP:1,2017-08-01T09:30:00Z,30.0600,-84.2910,-9.948,1111122 
COMPS,ioos:station:USF.COMPS:SHP:1,2017-08-01T09:36:00Z,30.0600,-84.2910,-9.939,1111122 
COMPS,ioos:station:USF.COMPS:SHP:1,2017-08-01T09:42:00Z,30.0600,-84.2910,-9.924,1111122 
COMPS,ioos:station:USF.COMPS:SHP:1,2017-08-01T09:48:00Z,30.0600,-84.2910,-9.911,1111122 
COMPS,ioos:station:USF.COMPS:SHP:1,2017-08-01T09:54:00Z,30.0600,-84.2910,-9.893,1111122 
COMPS,ioos:station:USF.COMPS:SHP:1,2017-08-01T10:00:00Z,30.0600,-84.2910,-9.869,1111122 
COMPS,ioos:station:USF.COMPS:SHP:1,2017-08-01T10:06:00Z,30.0600,-84.2910,-9.847,1111122 
COMPS,ioos:station:USF.COMPS:SHP:1,2017-08-01T10:12:00Z,30.0600,-84.2910,-9.827,1111122 
COMPS,ioos:station:USF.COMPS:SHP:1,2017-08-01T10:18:00Z,30.0600,-84.2910,-9.809,1111122 
COMPS,ioos:station:USF.COMPS:SHP:1,2017-08-01T10:24:00Z,30.0600,-84.2910,-9.789,1111122 
COMPS,ioos:station:USF.COMPS:SHP:1,2017-08-01T10:30:00Z,30.0600,-84.2910,-9.771,1111122 
COMPS,ioos:station:USF.COMPS:SHP:1,2017-08-01T10:36:00Z,30.0600,-84.2910,-9.759,1111122 
COMPS,ioos:station:USF.COMPS:SHP:1,2017-08-01T10:42:00Z,30.0600,-84.2910,-9.742,1111122 
COMPS,ioos:station:USF.COMPS:SHP:1,2017-08-01T10:48:00Z,30.0600,-84.2910,-9.733,1111122 
COMPS,ioos:station:USF.COMPS:SHP:1,2017-08-01T10:54:00Z,30.0600,-84.2910,-9.72,1111122 
COMPS,ioos:station:USF.COMPS:SHP:1,2017-08-01T11:00:00Z,30.0600,-84.2910,-9.701,1111122 
COMPS,ioos:station:USF.COMPS:SHP:1,2017-08-01T11:06:00Z,30.0600,-84.2910,-9.689,1111122 
COMPS,ioos:station:USF.COMPS:SHP:1,2017-08-01T11:12:00Z,30.0600,-84.2910,-9.682,1111122 
COMPS,ioos:station:USF.COMPS:SHP:1,2017-08-01T11:18:00Z,30.0600,-84.2910,-9.671,1111122 
COMPS,ioos:station:USF.COMPS:SHP:1,2017-08-01T11:24:00Z,30.0600,-84.2910,-9.662,1111122 
COMPS,ioos:station:USF.COMPS:SHP:1,2017-08-01T11:30:00Z,30.0600,-84.2910,-9.651,1111122 
COMPS,ioos:station:USF.COMPS:SHP:1,2017-08-01T11:36:00Z,30.0600,-84.2910,-9.636,1111122 
COMPS,ioos:station:USF.COMPS:SHP:1,2017-08-01T11:42:00Z,30.0600,-84.2910,-9.634,1111122 
COMPS,ioos:station:USF.COMPS:SHP:1,2017-08-01T11:48:00Z,30.0600,-84.2910,-9.628,1111122 
COMPS,ioos:station:USF.COMPS:SHP:1,2017-08-01T11:54:00Z,30.0600,-84.2910,-9.618,1111122 
COMPS,ioos:station:USF.COMPS:SHP:1,2017-08-01T12:00:00Z,30.0600,-84.2910,-9.615,1111122 
COMPS,ioos:station:USF.COMPS:SHP:1,2017-08-01T12:06:00Z,30.0600,-84.2910,-9.603,1111122 
COMPS,ioos:station:USF.COMPS:SHP:1,2017-08-01T12:12:00Z,30.0600,-84.2910,-9.582,1111122 
COMPS,ioos:station:USF.COMPS:SHP:1,2017-08-01T12:18:00Z,30.0600,-84.2910,-9.565,1111122 
COMPS,ioos:station:USF.COMPS:SHP:1,2017-08-01T12:24:00Z,30.0600,-84.2910,-9.559,1111122 
COMPS,ioos:station:USF.COMPS:SHP:1,2017-08-01T12:30:00Z,30.0600,-84.2910,-9.553,1111122 
COMPS,ioos:station:USF.COMPS:SHP:1,2017-08-01T12:36:00Z,30.0600,-84.2910,-9.551,1111122 
COMPS,ioos:station:USF.COMPS:SHP:1,2017-08-01T12:42:00Z,30.0600,-84.2910,-9.55,1111122 
COMPS,ioos:station:USF.COMPS:SHP:1,2017-08-01T12:48:00Z,30.0600,-84.2910,-9.536,1111122 
COMPS,ioos:station:USF.COMPS:SHP:1,2017-08-01T12:54:00Z,30.0600,-84.2910,-9.52,1111122 
COMPS,ioos:station:USF.COMPS:SHP:1,2017-08-01T13:00:00Z,30.0600,-84.2910,-9.511,1111122 
COMPS,ioos:station:USF.COMPS:SHP:1,2017-08-01T13:06:00Z,30.0600,-84.2910,-9.507,1111122 
COMPS,ioos:station:USF.COMPS:SHP:1,2017-08-01T13:12:00Z,30.0600,-84.2910,-9.504,1111122 
COMPS,ioos:station:USF.COMPS:SHP:1,2017-08-01T13:18:00Z,30.0600,-84.2910,-9.503,1111122 
COMPS,ioos:station:USF.COMPS:SHP:1,2017-08-01T13:24:00Z,30.0600,-84.2910,-9.499,1111122 
COMPS,ioos:station:USF.COMPS:SHP:1,2017-08-01T13:30:00Z,30.0600,-84.2910,-9.494,1111122 
COMPS,ioos:station:USF.COMPS:SHP:1,2017-08-01T13:36:00Z,30.0600,-84.2910,-9.49,1111122 
COMPS,ioos:station:USF.COMPS:SHP:1,2017-08-01T13:42:00Z,30.0600,-84.2910,-9.481,1111122 
COMPS,ioos:station:USF.COMPS:SHP:1,2017-08-01T13:48:00Z,30.0600,-84.2910,-9.464,1111122 
COMPS,ioos:station:USF.COMPS:SHP:1,2017-08-01T13:54:00Z,30.0600,-84.2910,-9.466,1111122 
COMPS,ioos:station:USF.COMPS:SHP:1,2017-08-01T14:00:00Z,30.0600,-84.2910,-9.471,1111122 
COMPS,ioos:station:USF.COMPS:SHP:1,2017-08-01T14:06:00Z,30.0600,-84.2910,-9.473,1111122 
COMPS,ioos:station:USF.COMPS:SHP:1,2017-08-01T14:12:00Z,30.0600,-84.2910,-9.476,1111122 
COMPS,ioos:station:USF.COMPS:SHP:1,2017-08-01T14:18:00Z,30.0600,-84.2910,-9.471,1111122 
COMPS,ioos:station:USF.COMPS:SHP:1,2017-08-01T14:24:00Z,30.0600,-84.2910,-9.474,1111122 
COMPS,ioos:station:USF.COMPS:SHP:1,2017-08-01T14:30:00Z,30.0600,-84.2910,-9.481,1111122 
COMPS,ioos:station:USF.COMPS:SHP:1,2017-08-01T14:36:00Z,30.0600,-84.2910,-9.485,1111122 
COMPS,ioos:station:USF.COMPS:SHP:1,2017-08-01T14:42:00Z,30.0600,-84.2910,-9.487,1111122 
COMPS,ioos:station:USF.COMPS:SHP:1,2017-08-01T14:48:00Z,30.0600,-84.2910,-9.484,1111122 
COMPS,ioos:station:USF.COMPS:SHP:1,2017-08-01T14:54:00Z,30.0600,-84.2910,-9.486,1111122 
COMPS,ioos:station:USF.COMPS:SHP:1,2017-08-01T15:00:00Z,30.0600,-84.2910,-9.48,1111122 
COMPS,ioos:station:USF.COMPS:SHP:1,2017-08-01T15:06:00Z,30.0600,-84.2910,-9.483,1111122 
COMPS,ioos:station:USF.COMPS:SHP:1,2017-08-01T15:12:00Z,30.0600,-84.2910,-9.492,1111122 
COMPS,ioos:station:USF.COMPS:SHP:1,2017-08-01T15:18:00Z,30.0600,-84.2910,-9.496,1111122 
COMPS,ioos:station:USF.COMPS:SHP:1,2017-08-01T15:24:00Z,30.0600,-84.2910,-9.503,1111122 
COMPS,ioos:station:USF.COMPS:SHP:1,2017-08-01T15:30:00Z,30.0600,-84.2910,-9.515,1111122 
COMPS,ioos:station:USF.COMPS:SHP:1,2017-08-01T15:36:00Z,30.0600,-84.2910,-9.524,1111122 
COMPS,ioos:station:USF.COMPS:SHP:1,2017-08-01T15:42:00Z,30.0600,-84.2910,-9.531,1111122 
COMPS,ioos:station:USF.COMPS:SHP:1,2017-08-01T15:48:00Z,30.0600,-84.2910,-9.54,1111122 
COMPS,ioos:station:USF.COMPS:SHP:1,2017-08-01T15:54:00Z,30.0600,-84.2910,-9.548,1111122 
COMPS,ioos:station:USF.COMPS:SHP:1,2017-08-01T16:00:00Z,30.0600,-84.2910,-9.564,1111122 
COMPS,ioos:station:USF.COMPS:SHP:1,2017-08-01T16:06:00Z,30.0600,-84.2910,-9.579,1111122 
COMPS,ioos:station:USF.COMPS:SHP:1,2017-08-01T16:12:00Z,30.0600,-84.2910,-9.595,1111122 
COMPS,ioos:station:USF.COMPS:SHP:1,2017-08-01T16:18:00Z,30.0600,-84.2910,-9.608,1111122 
COMPS,ioos:station:USF.COMPS:SHP:1,2017-08-01T16:24:00Z,30.0600,-84.2910,-9.625,1111122 
COMPS,ioos:station:USF.COMPS:SHP:1,2017-08-01T16:30:00Z,30.0600,-84.2910,-9.642,1111122 
COMPS,ioos:station:USF.COMPS:SHP:1,2017-08-01T16:36:00Z,30.0600,-84.2910,-9.655,1111122 
COMPS,ioos:station:USF.COMPS:SHP:1,2017-08-01T16:42:00Z,30.0600,-84.2910,-9.671,1111122 
COMPS,ioos:station:USF.COMPS:SHP:1,2017-08-01T16:48:00Z,30.0600,-84.2910,-9.692,1111122 
COMPS,ioos:station:USF.COMPS:SHP:1,2017-08-01T16:54:00Z,30.0600,-84.2910,-9.712,1111122 
COMPS,ioos:station:USF.COMPS:SHP:1,2017-08-01T17:00:00Z,30.0600,-84.2910,-9.729,1111122 
COMPS,ioos:station:USF.COMPS:SHP:1,2017-08-01T17:06:00Z,30.0600,-84.2910,-9.744,1111122 
COMPS,ioos:station:USF.COMPS:SHP:1,2017-08-01T17:12:00Z,30.0600,-84.2910,-9.759,1111122 
COMPS,ioos:station:USF.COMPS:SHP:1,2017-08-01T17:18:00Z,30.0600,-84.2910,-9.778,1111122 
COMPS,ioos:station:USF.COMPS:SHP:1,2017-08-01T17:24:00Z,30.0600,-84.2910,-9.789,1111122 
COMPS,ioos:station:USF.COMPS:SHP:1,2017-08-01T17:30:00Z,30.0600,-84.2910,-9.802,1111122 
COMPS,ioos:station:USF.COMPS:SHP:1,2017-08-01T17:36:00Z,30.0600,-84.2910,-9.818,1111122 
COMPS,ioos:station:USF.COMPS:SHP:1,2017-08-01T17:42:00Z,30.0600,-84.2910,-9.833,1111122 
COMPS,ioos:station:USF.COMPS:SHP:1,2017-08-01T17:48:00Z,30.0600,-84.2910,-9.849,1111122 
COMPS,ioos:station:USF.COMPS:SHP:1,2017-08-01T17:54:00Z,30.0600,-84.2910,-9.862,1111122 
COMPS,ioos:station:USF.COMPS:SHP:1,2017-08-01T18:00:00Z,30.0600,-84.2910,-9.879,1111122 
COMPS,ioos:station:USF.COMPS:SHP:1,2017-08-01T18:06:00Z,30.0600,-84.2910,-9.893,1111122 
COMPS,ioos:station:USF.COMPS:SHP:1,2017-08-01T18:12:00Z,30.0600,-84.2910,-9.908,1111122 
COMPS,ioos:station:USF.COMPS:SHP:1,2017-08-01T18:18:00Z,30.0600,-84.2910,-9.926,1111122 
COMPS,ioos:station:USF.COMPS:SHP:1,2017-08-01T18:24:00Z,30.0600,-84.2910,-9.94,1111122 
COMPS,ioos:station:USF.COMPS:SHP:1,2017-08-01T18:30:00Z,30.0600,-84.2910,-9.947,1111122 
COMPS,ioos:station:USF.COMPS:SHP:1,2017-08-01T18:36:00Z,30.0600,-84.2910,-9.961,1111122 
COMPS,ioos:station:USF.COMPS:SHP:1,2017-08-01T18:42:00Z,30.0600,-84.2910,-9.982,1111122 
COMPS,ioos:station:USF.COMPS:SHP:1,2017-08-01T18:48:00Z,30.0600,-84.2910,-9.999,1111122 
COMPS,ioos:station:USF.COMPS:SHP:1,2017-08-02T00:12:00Z,30.0600,-84.2910,-9.982,1111122 
COMPS,ioos:station:USF.COMPS:SHP:1,2017-08-02T00:18:00Z,30.0600,-84.2910,-9.967,1111122 
COMPS,ioos:station:USF.COMPS:SHP:1,2017-08-02T00:24:00Z,30.0600,-84.2910,-9.957,1111122 
COMPS,ioos:station:USF.COMPS:SHP:1,2017-08-02T00:30:00Z,30.0600,-84.2910,-9.953,1111122 
COMPS,ioos:station:USF.COMPS:SHP:1,2017-08-02T00:36:00Z,30.0600,-84.2910,-9.948,1111122 
COMPS,ioos:station:USF.COMPS:SHP:1,2017-08-02T00:42:00Z,30.0600,-84.2910,-9.935,1111122 
COMPS,ioos:station:USF.COMPS:SHP:1,2017-08-02T00:48:00Z,30.0600,-84.2910,-9.919,1111122 
COMPS,ioos:station:USF.COMPS:SHP:1,2017-08-02T00:54:00Z,30.0600,-84.2910,-9.902,1111122 
COMPS,ioos:station:USF.COMPS:SHP:1,2017-08-02T01:00:00Z,30.0600,-84.2910,-9.887,1111122 
COMPS,ioos:station:USF.COMPS:SHP:1,2017-08-02T01:06:00Z,30.0600,-84.2910,-9.875,1111122 
COMPS,ioos:station:USF.COMPS:SHP:1,2017-08-02T01:12:00Z,30.0600,-84.2910,-9.861,1111122 
COMPS,ioos:station:USF.COMPS:SHP:1,2017-08-02T01:18:00Z,30.0600,-84.2910,-9.849,1111122 
COMPS,ioos:station:USF.COMPS:SHP:1,2017-08-02T01:24:00Z,30.0600,-84.2910,-9.843,1111122 
COMPS,ioos:station:USF.COMPS:SHP:1,2017-08-02T01:30:00Z,30.0600,-84.2910,-9.829,1111122 
COMPS,ioos:station:USF.COMPS:SHP:1,2017-08-02T01:36:00Z,30.0600,-84.2910,-9.808,1111122 
COMPS,ioos:station:USF.COMPS:SHP:1,2017-08-02T01:42:00Z,30.0600,-84.2910,-9.791,1111122 
COMPS,ioos:station:USF.COMPS:SHP:1,2017-08-02T01:48:00Z,30.0600,-84.2910,-9.782,1111122 
COMPS,ioos:station:USF.COMPS:SHP:1,2017-08-02T01:54:00Z,30.0600,-84.2910,-9.774,1111122 
COMPS,ioos:station:USF.COMPS:SHP:1,2017-08-02T02:00:00Z,30.0600,-84.2910,-9.768,1111122 
COMPS,ioos:station:USF.COMPS:SHP:1,2017-08-02T02:06:00Z,30.0600,-84.2910,-9.763,1111122 
COMPS,ioos:station:USF.COMPS:SHP:1,2017-08-02T02:12:00Z,30.0600,-84.2910,-9.748,1111122 
COMPS,ioos:station:USF.COMPS:SHP:1,2017-08-02T02:18:00Z,30.0600,-84.2910,-9.737,1111122 
COMPS,ioos:station:USF.COMPS:SHP:1,2017-08-02T02:24:00Z,30.0600,-84.2910,-9.724,1111122 
COMPS,ioos:station:USF.COMPS:SHP:1,2017-08-02T02:30:00Z,30.0600,-84.2910,-9.706,1111122 
COMPS,ioos:station:USF.COMPS:SHP:1,2017-08-02T02:36:00Z,30.0600,-84.2910,-9.689,1111122 
COMPS,ioos:station:USF.COMPS:SHP:1,2017-08-02T02:42:00Z,30.0600,-84.2910,-9.682,1111122 
COMPS,ioos:station:USF.COMPS:SHP:1,2017-08-02T02:48:00Z,30.0600,-84.2910,-9.679,1111122 
COMPS,ioos:station:USF.COMPS:SHP:1,2017-08-02T02:54:00Z,30.0600,-84.2910,-9.674,1111122 
COMPS,ioos:station:USF.COMPS:SHP:1,2017-08-02T03:00:00Z,30.0600,-84.2910,-9.665,1111122 
COMPS,ioos:station:USF.COMPS:SHP:1,2017-08-02T03:06:00Z,30.0600,-84.2910,-9.659,1111122 
COMPS,ioos:station:USF.COMPS:SHP:1,2017-08-02T03:12:00Z,30.0600,-84.2910,-9.648,1111122 
COMPS,ioos:station:USF.COMPS:SHP:1,2017-08-02T03:18:00Z,30.0600,-84.2910,-9.633,1111122 
COMPS,ioos:station:USF.COMPS:SHP:1,2017-08-02T03:24:00Z,30.0600,-84.2910,-9.621,1111122 
COMPS,ioos:station:USF.COMPS:SHP:1,2017-08-02T03:30:00Z,30.0600,-84.2910,-9.613,1111122 
COMPS,ioos:station:USF.COMPS:SHP:1,2017-08-02T03:36:00Z,30.0600,-84.2910,-9.612,1111122 
COMPS,ioos:station:USF.COMPS:SHP:1,2017-08-02T03:42:00Z,30.0600,-84.2910,-9.615,1111122 
COMPS,ioos:station:USF.COMPS:SHP:1,2017-08-02T03:48:00Z,30.0600,-84.2910,-9.61,1111122 
COMPS,ioos:station:USF.COMPS:SHP:1,2017-08-02T03:54:00Z,30.0600,-84.2910,-9.601,1111122 
COMPS,ioos:station:USF.COMPS:SHP:1,2017-08-02T04:00:00Z,30.0600,-84.2910,-9.602,1111122 
COMPS,ioos:station:USF.COMPS:SHP:1,2017-08-02T04:06:00Z,30.0600,-84.2910,-9.604,1111122 
COMPS,ioos:station:USF.COMPS:SHP:1,2017-08-02T04:12:00Z,30.0600,-84.2910,-9.606,1111122 
COMPS,ioos:station:USF.COMPS:SHP:1,2017-08-02T04:18:00Z,30.0600,-84.2910,-9.606,1111122 
COMPS,ioos:station:USF.COMPS:SHP:1,2017-08-02T04:24:00Z,30.0600,-84.2910,-9.603,1111122 
COMPS,ioos:station:USF.COMPS:SHP:1,2017-08-02T04:30:00Z,30.0600,-84.2910,-9.608,1111122 
COMPS,ioos:station:USF.COMPS:SHP:1,2017-08-02T04:36:00Z,30.0600,-84.2910,-9.612,1111122 
COMPS,ioos:station:USF.COMPS:SHP:1,2017-08-02T04:42:00Z,30.0600,-84.2910,-9.614,1111122 
COMPS,ioos:station:USF.COMPS:SHP:1,2017-08-02T04:48:00Z,30.0600,-84.2910,-9.609,1111122 
COMPS,ioos:station:USF.COMPS:SHP:1,2017-08-02T04:54:00Z,30.0600,-84.2910,-9.601,1111122 
COMPS,ioos:station:USF.COMPS:SHP:1,2017-08-02T05:00:00Z,30.0600,-84.2910,-9.601,1111122 
COMPS,ioos:station:USF.COMPS:SHP:1,2017-08-02T05:06:00Z,30.0600,-84.2910,-9.616,1111122 
COMPS,ioos:station:USF.COMPS:SHP:1,2017-08-02T05:12:00Z,30.0600,-84.2910,-9.621,1111122 
COMPS,ioos:station:USF.COMPS:SHP:1,2017-08-02T05:18:00Z,30.0600,-84.2910,-9.629,1111122 
COMPS,ioos:station:USF.COMPS:SHP:1,2017-08-02T05:24:00Z,30.0600,-84.2910,-9.648,1111122 
COMPS,ioos:station:USF.COMPS:SHP:1,2017-08-02T05:30:00Z,30.0600,-84.2910,-9.656,1111122 
COMPS,ioos:station:USF.COMPS:SHP:1,2017-08-02T05:36:00Z,30.0600,-84.2910,-9.661,1111122 
COMPS,ioos:station:USF.COMPS:SHP:1,2017-08-02T05:42:00Z,30.0600,-84.2910,-9.663,1111122 
COMPS,ioos:station:USF.COMPS:SHP:1,2017-08-02T05:48:00Z,30.0600,-84.2910,-9.661,1111122 
COMPS,ioos:station:USF.COMPS:SHP:1,2017-08-02T05:54:00Z,30.0600,-84.2910,-9.666,1111122 
COMPS,ioos:station:USF.COMPS:SHP:1,2017-08-02T06:00:00Z,30.0600,-84.2910,-9.681,1111122 
COMPS,ioos:station:USF.COMPS:SHP:1,2017-08-02T06:06:00Z,30.0600,-84.2910,-9.687,1111122 
COMPS,ioos:station:USF.COMPS:SHP:1,2017-08-02T06:12:00Z,30.0600,-84.2910,-9.683,1111122 
COMPS,ioos:station:USF.COMPS:SHP:1,2017-08-02T06:18:00Z,30.0600,-84.2910,-9.681,1111122 
COMPS,ioos:station:USF.COMPS:SHP:1,2017-08-02T06:24:00Z,30.0600,-84.2910,-9.69,1111122 
COMPS,ioos:station:USF.COMPS:SHP:1,2017-08-02T06:30:00Z,30.0600,-84.2910,-9.697,1111122 
COMPS,ioos:station:USF.COMPS:SHP:1,2017-08-02T06:36:00Z,30.0600,-84.2910,-9.715,1111122 
COMPS,ioos:station:USF.COMPS:SHP:1,2017-08-02T06:42:00Z,30.0600,-84.2910,-9.717,1111122 
COMPS,ioos:station:USF.COMPS:SHP:1,2017-08-02T06:48:00Z,30.0600,-84.2910,-9.71,1111122 
COMPS,ioos:station:USF.COMPS:SHP:1,2017-08-02T06:54:00Z,30.0600,-84.2910,-9.711,1111122 
COMPS,ioos:station:USF.COMPS:SHP:1,2017-08-02T07:00:00Z,30.0600,-84.2910,-9.711,1111122 
COMPS,ioos:station:USF.COMPS:SHP:1,2017-08-02T07:06:00Z,30.0600,-84.2910,-9.708,1111122 
COMPS,ioos:station:USF.COMPS:SHP:1,2017-08-02T07:12:00Z,30.0600,-84.2910,-9.707,1111122 
COMPS,ioos:station:USF.COMPS:SHP:1,2017-08-02T07:18:00Z,30.0600,-84.2910,-9.704,1111122 
COMPS,ioos:station:USF.COMPS:SHP:1,2017-08-02T07:24:00Z,30.0600,-84.2910,-9.703,1111122 
COMPS,ioos:station:USF.COMPS:SHP:1,2017-08-02T07:30:00Z,30.0600,-84.2910,-9.703,1111122 
COMPS,ioos:station:USF.COMPS:SHP:1,2017-08-02T07:36:00Z,30.0600,-84.2910,-9.705,1111122 
COMPS,ioos:station:USF.COMPS:SHP:1,2017-08-02T07:42:00Z,30.0600,-84.2910,-9.697,1111122 
COMPS,ioos:station:USF.COMPS:SHP:1,2017-08-02T07:48:00Z,30.0600,-84.2910,-9.686,1111122 
COMPS,ioos:station:USF.COMPS:SHP:1,2017-08-02T07:54:00Z,30.0600,-84.2910,-9.686,1111122 
COMPS,ioos:station:USF.COMPS:SHP:1,2017-08-02T08:00:00Z,30.0600,-84.2910,-9.694,1111122 
COMPS,ioos:station:USF.COMPS:SHP:1,2017-08-02T08:06:00Z,30.0600,-84.2910,-9.703,1111122 
COMPS,ioos:station:USF.COMPS:SHP:1,2017-08-02T08:12:00Z,30.0600,-84.2910,-9.705,1111122 
COMPS,ioos:station:USF.COMPS:SHP:1,2017-08-02T08:18:00Z,30.0600,-84.2910,-9.687,1111122 
COMPS,ioos:station:USF.COMPS:SHP:1,2017-08-02T08:24:00Z,30.0600,-84.2910,-9.678,1111122 
COMPS,ioos:station:USF.COMPS:SHP:1,2017-08-02T08:30:00Z,30.0600,-84.2910,-9.687,1111122 
COMPS,ioos:station:USF.COMPS:SHP:1,2017-08-02T08:36:00Z,30.0600,-84.2910,-9.688,1111122 
COMPS,ioos:station:USF.COMPS:SHP:1,2017-08-02T08:42:00Z,30.0600,-84.2910,-9.696,1111122 
COMPS,ioos:station:USF.COMPS:SHP:1,2017-08-02T08:48:00Z,30.0600,-84.2910,-9.699,1111122 
COMPS,ioos:station:USF.COMPS:SHP:1,2017-08-02T08:54:00Z,30.0600,-84.2910,-9.688,1111122 